Peoria, IL

11:26 PM CST on February 21, 2017 (GMT -0600)
Greater Peoria Regional

Weather History for KPIA - December, 2013

Change the Weather History Date:

Saturday, December 14, 2013

  Actual Average Record
Temperature  
Mean Temperature 26 °F 29 °F  
Max Temperature 32 °F 36 °F 66 °F (1975)
Min Temperature 20 °F 21 °F -7 °F (1989)
Degree Days  
Heating Degree Days 39 36  
Month to date heating degree days 553 476  
Since 1 July heating degree days 1735 1624  
Cooling Degree Days 0 0  
Month to date cooling degree days 0 0  
Year to date cooling degree days 1174 1039  
Moisture  
Dew Point 26 °F    
Average Humidity 89    
Maximum Humidity 100    
Minimum Humidity 77    
Precipitation  
Precipitation 0.33 in 0.08 in 1.46 in (2011)
Month to date precipitation 0.72 1.24  
Year to date precipitation 42.79 35.31  
Snow  
Snow 3.50 in 0.30 in 4.20 in (1951)
Month to date snowfall 6.9 2.9  
Since 1 July snowfall 7.5 4.0  
Snow Depth 5.00 in    
Sea Level Pressure  
Sea Level Pressure 29.99 in    
Wind  
Wind Speed 8 mph (NNE)    
Max Wind Speed 16 mph    
Max Gust Speed 23 mph    
Visibility 4 miles    
Events Fog , Snow    
T = Trace of Precipitation, MM = Missing Value Source: NWS Daily Summary

Daily Weather History Graph

Daily Weather History Graph

Search for Another Location

Airport or City:

Trip Planner

Search our weather history database for the weather conditions in past years. The results will help you decide how hot, cold, wet, or windy it might be!

Date:

Astronomy

Dec. 14, 2013 Rise Set
Actual Time 7:14 AM CST 4:32 PM CST
Civil Twilight 6:44 AM CST 5:03 PM CST
Nautical Twilight 6:09 AM CST 5:37 PM CST
Astronomical Twilight 5:36 AM CST 6:10 PM CST
Moon 2:54 PM CST (12/14) 4:35 AM CST (12/14)
Length of Visible Light 10h 19m
Length of Day
9h 17m
Waxing Gibbous, 94% of the Moon is Illuminated
Dec 14
Waxing Gibbous
Dec 17
Full
Dec 25
Last Quarter
Jan 1
New
Jan 7
First Quarter

Hourly Weather History & Observations

Time (CST) Temp. Windchill Dew Point Humidity Pressure Visibility Wind Dir Wind Speed Gust Speed Precip Events Conditions
12:02 AM 30.9 °F 26.2 °F 30.0 °F 96% 30.02 in 0.8 mi ESE 4.6 mph - 0.01 in Snow Light Snow
12:12 AM 32.0 °F 26.4 °F 30.0 °F 92% 30.01 in 1.0 mi ESE 5.8 mph - 0.01 in Snow Light Snow
12:42 AM 32.0 °F 28.7 °F 30.0 °F 92% 30.00 in 0.8 mi East 3.5 mph - 0.03 in Snow Light Snow
12:54 AM 32.0 °F 26.4 °F 30.0 °F 92% 30.02 in 1.0 mi ESE 5.8 mph - 0.04 in Snow Light Snow
1:12 AM 32.0 °F 26.4 °F 30.0 °F 92% 29.99 in 0.8 mi SE 5.8 mph - 0.02 in Snow Light Snow
1:33 AM 32.0 °F 26.4 °F 30.0 °F 92% 29.98 in 0.8 mi East 5.8 mph - 0.04 in Snow Light Snow
1:45 AM 32.0 °F 27.5 °F 30.0 °F 92% 29.98 in 1.0 mi East 4.6 mph - 0.05 in Snow Light Snow
1:54 AM 32.0 °F 25.6 °F 30.0 °F 92% 30.00 in 0.8 mi East 6.9 mph - 0.06 in Snow Light Snow
2:10 AM 32.0 °F 26.4 °F 30.0 °F 92% 29.98 in 0.5 mi East 5.8 mph - 0.02 in Fog , Snow Snow
2:54 AM 32.0 °F 25.6 °F 30.0 °F 92% 29.98 in 1.0 mi ENE 6.9 mph - 0.09 in Snow Light Snow
3:04 AM 32.0 °F 24.8 °F 30.0 °F 92% 29.96 in 1.0 mi ENE 8.1 mph - 0.00 in Snow Light Snow
3:28 AM 32.0 °F 25.6 °F 30.0 °F 92% 29.96 in 1.5 mi East 6.9 mph - 0.01 in Snow Light Snow
3:54 AM 32.0 °F 24.8 °F 30.0 °F 92% 29.96 in 1.5 mi East 8.1 mph - 0.03 in Snow Light Snow
4:10 AM 32.0 °F 24.8 °F 30.0 °F 92% 29.94 in 1.2 mi ENE 8.1 mph - 0.01 in Snow Light Snow
4:45 AM 32.0 °F 24.8 °F 30.0 °F 92% 29.92 in 1.8 mi East 8.1 mph - 0.03 in Snow Light Snow
4:52 AM 32.0 °F 24.2 °F 30.2 °F 93% 29.92 in 2.0 mi ENE 9.2 mph - 0.03 in Snow Light Snow
4:54 AM 32.0 °F 24.8 °F 30.0 °F 92% 29.94 in 2.0 mi ENE 8.1 mph - 0.03 in Snow Light Snow
5:08 AM 32.0 °F 24.8 °F 30.0 °F 92% 29.92 in 1.8 mi ENE 8.1 mph - 0.00 in Snow Light Snow
5:30 AM 32.0 °F 25.6 °F 30.0 °F 92% 29.93 in 2.0 mi ENE 6.9 mph - 0.00 in Snow Light Snow
5:54 AM 32.0 °F 24.8 °F 30.0 °F 92% 29.95 in 2.5 mi NE 8.1 mph - 0.00 in Snow Light Snow
6:04 AM 30.9 °F 23.5 °F 30.0 °F 96% 29.93 in 1.2 mi NE 8.1 mph - 0.00 in Snow Light Snow
6:36 AM 30.9 °F 24.3 °F 30.0 °F 96% 29.93 in 0.8 mi ENE 6.9 mph - 0.02 in Snow Light Snow
6:54 AM 30.9 °F 24.3 °F 30.0 °F 96% 29.95 in 1.2 mi NE 6.9 mph - 0.03 in Snow Light Snow
7:54 AM 30.9 °F 24.3 °F 28.0 °F 89% 29.96 in 1.0 mi NNE 6.9 mph - 0.01 in Snow Light Snow
8:04 AM 30.0 °F 23.2 °F 28.0 °F 92% 29.95 in 0.8 mi NNE 6.9 mph - 0.00 in Snow Light Snow
8:31 AM 30.0 °F 24.1 °F 28.0 °F 92% 29.95 in 1.0 mi NNE 5.8 mph - 0.01 in Snow Light Snow
8:54 AM 30.9 °F 23.5 °F 28.0 °F 89% 29.96 in 1.2 mi NNE 8.1 mph - 0.02 in Snow Light Snow
9:04 AM 30.9 °F 22.8 °F 28.0 °F 89% 29.94 in 1.5 mi NNE 9.2 mph - 0.00 in Snow Light Snow
9:28 AM 30.9 °F 24.3 °F 28.0 °F 89% 29.94 in 1.8 mi NNE 6.9 mph - 0.00 in Snow Light Snow
9:43 AM 30.9 °F 24.3 °F 28.0 °F 89% 29.95 in 1.2 mi NNE 6.9 mph - 0.00 in Snow Light Snow
9:54 AM 30.9 °F 26.2 °F 28.0 °F 89% 29.97 in 1.2 mi North 4.6 mph - 0.00 in Snow Light Snow
10:23 AM 30.9 °F 23.5 °F 28.0 °F 89% 29.95 in 0.8 mi NNE 8.1 mph - 0.01 in Snow Light Snow
10:54 AM 30.9 °F 23.5 °F 28.0 °F 89% 29.96 in 0.8 mi North 8.1 mph - 0.02 in Snow Light Snow
11:13 AM 30.9 °F 22.8 °F 28.0 °F 89% 29.94 in 1.5 mi North 9.2 mph - 0.00 in Snow Light Snow
11:28 AM 30.9 °F 23.5 °F 28.0 °F 89% 29.94 in 2.0 mi North 8.1 mph - 0.00 in   Overcast
11:50 AM 32.0 °F 24.8 °F 28.4 °F 87% 29.93 in 3.0 mi North 8.1 mph - 0.00 in   Overcast
11:54 AM 32.0 °F 25.6 °F 28.0 °F 85% 29.95 in 3.0 mi NNE 6.9 mph - 0.00 in   Overcast
12:44 PM 32.0 °F 25.6 °F 28.0 °F 85% 29.92 in 2.5 mi North 6.9 mph - 0.00 in Snow Light Snow
12:54 PM 32.0 °F 23.6 °F 28.0 °F 85% 29.94 in 2.5 mi North 10.4 mph - 0.00 in Snow Light Snow
1:05 PM 32.0 °F 24.8 °F 28.0 °F 85% 29.91 in 3.0 mi North 8.1 mph - 0.00 in   Overcast
1:54 PM 30.9 °F 21.7 °F 26.1 °F 82% 29.94 in 4.0 mi North 11.5 mph 18.4 mph 0.00 in   Haze
2:34 PM 30.0 °F 21.1 °F 25.0 °F 82% 29.93 in 6.0 mi North 10.4 mph - N/A   Haze
2:54 PM 30.0 °F 21.7 °F 25.0 °F 82% 29.96 in 7.0 mi North 9.2 mph 17.3 mph N/A   Overcast
3:54 PM 28.9 °F 20.4 °F 24.1 °F 82% 30.00 in 8.0 mi NNW 9.2 mph 18.4 mph N/A   Overcast
4:54 PM 27.0 °F 17.3 °F 21.9 °F 81% 30.02 in 9.0 mi North 10.4 mph 20.7 mph N/A   Overcast
5:54 PM 26.1 °F 18.4 °F 21.0 °F 81% 30.04 in 10.0 mi NNW 6.9 mph - N/A   Overcast
6:12 PM 26.1 °F 16.8 °F 21.0 °F 81% 30.02 in 10.0 mi NNW 9.2 mph - N/A   Overcast
6:54 PM 25.0 °F 15.5 °F 21.0 °F 85% 30.06 in 9.0 mi NNW 9.2 mph - N/A   Overcast
7:54 PM 24.1 °F 13.7 °F 19.0 °F 81% 30.09 in 10.0 mi NW 10.4 mph 19.6 mph N/A   Overcast
8:22 PM 24.1 °F 14.4 °F 19.0 °F 81% 30.07 in 10.0 mi NW 9.2 mph - N/A   Overcast
8:54 PM 23.0 °F 13.1 °F 18.0 °F 81% 30.09 in 10.0 mi NW 9.2 mph - N/A   Overcast
9:40 PM 21.0 °F 13.4 °F 16.0 °F 81% 30.07 in 9.0 mi WNW 5.8 mph - N/A   Scattered Clouds
9:47 PM 21.0 °F 13.4 °F 16.0 °F 81% 30.07 in 9.0 mi WNW 5.8 mph - N/A   Mostly Cloudy
9:54 PM 21.0 °F 12.4 °F 16.0 °F 81% 30.10 in 9.0 mi WNW 6.9 mph - N/A   Mostly Cloudy
10:01 PM 21.0 °F 12.4 °F 16.0 °F 81% 30.07 in 9.0 mi WNW 6.9 mph - N/A   Scattered Clouds
10:34 PM 21.0 °F 12.4 °F 17.1 °F 85% 30.07 in 8.0 mi WNW 6.9 mph - N/A   Mostly Cloudy
10:54 PM 21.9 °F 12.5 °F 17.1 °F 82% 30.10 in 8.0 mi West 8.1 mph - N/A   Overcast
11:19 PM 21.0 °F 11.4 °F 16.0 °F 81% 30.08 in 9.0 mi West 8.1 mph - N/A   Mostly Cloudy
11:49 PM 21.2 °F 9.5 °F 15.8 °F 80% 30.08 in 10.0 mi West 11.5 mph 19.6 mph N/A   Overcast
11:54 PM 19.9 °F 9.3 °F 15.1 °F 81% 30.10 in 10.0 mi WNW 9.2 mph - N/A   Overcast